Location: Freemans Gardens
(41.6414°N, 83.6077°W)
Time: 22:02:25
(UTC+00:00)

FengYun 1-2 T - Pass Details

Date: 29 October 2020
Orbit: 846 x 882 km, 98.7° (Epoch: 25 November)

Event Time Altitude Azimuth Distance (km) Brightness Sun altitude
Rises 22:56:01 0° 152° (SSE) 3,468 7.2 -5.1°
Reaches altitude 10° 22:58:26 10° 149° (SSE) 2,531 6.5 -5.6°
Maximum altitude 23:03:57 58° 72° (ENE) 1,021 4.4 -6.6°
Drops below altitude 10° 23:09:28 10° 354° (N) 2,533 6.6 -7.6°
Sets 23:11:52 0° 351° (N) 3,470 7.4 -8.0°
